Terug naar catalogus

ONEWEB-0200

ActiefCommunicatiePO
NORAD 48244·PAYLOAD·🇬🇧 United Kingdom

Gelanceerd Apr 25, 2021 vanaf Vostochny Cosmodrome

Loading…

Volgende Passages (komende 24 uur)

TLE

VersSource: CelesTrak SupGP

Epoch: Sep 14, 2026, 13:59 UTC

1 48244C 21031AL  26257.58312917 -.00000128  00000+0 -34637-3 0  2572
2 48244  87.8909 271.8729 0001692  97.0699   2.2269 13.14507499    14

Volg ONEWEB-0200 in realtime met AllMySat

Download on the App Store